Hourly Weather Abrosimovo

Today, 7 March, Sunday

Time Temperature Precipitation Wind Pressure Humidity
00:00 -15°C° 0 mm 1 mps 750 mmHg 97%
01:00 -16°C° 0 mm 1 mps 750 mmHg 97%
02:00 -16°C° 0 mm 1 mps 750 mmHg 97%
03:00 -17°C° 0 mm 1 mps 749 mmHg 99%
04:00 -17°C° 0 mm 1 mps 749 mmHg 99%
05:00 -17°C° 0 mm 1 mps 749 mmHg 99%
06:00 -17°C° 0 mm 1 mps 748 mmHg 99%
07:00 -18°C° 0 mm 2 mps 748 mmHg 98%
08:00 -16°C° 0 mm 2 mps 747 mmHg 97%
09:00 -15°C° 0 mm 3 mps 747 mmHg 96%
10:00 -14°C° 0 mm 3 mps 747 mmHg 94%
11:00 -12°C° 0 mm 4 mps 746 mmHg 92%
12:00 -11°C° 0 mm 4 mps 745 mmHg 90%
13:00 -12°C° 0.1 mm 5 mps 744 mmHg 91%
14:00 -11°C° 0.1 mm 5 mps 743 mmHg 92%
15:00 -11°C° 0 mm 5 mps 742 mmHg 92%
16:00 -10°C° 0.5 mm 5 mps 741 mmHg 92%
17:00 -10°C° 0.5 mm 5 mps 740 mmHg 93%
18:00 -10°C° 0.5 mm 5 mps 739 mmHg 94%
19:00 -10°C° 0.4 mm 5 mps 738 mmHg 94%
20:00 -8°C° 0.4 mm 4 mps 738 mmHg 94%
21:00 -8°C° 0.4 mm 4 mps 737 mmHg 94%
22:00 -8°C° 0.3 mm 4 mps 736 mmHg 95%
23:00 -7°C° 0.3 mm 3 mps 736 mmHg 95%

Tomorrow, 8 March, Monday

Time Temperature Precipitation Wind Pressure Humidity
00:00 -7°C° 0.3 mm 3 mps 735 mmHg 95%
01:00 -7°C° 0.4 mm 3 mps 735 mmHg 95%
02:00 -7°C° 0.4 mm 3 mps 734 mmHg 95%
03:00 -7°C° 0.4 mm 3 mps 734 mmHg 95%
04:00 -8°C° 0.1 mm 3 mps 735 mmHg 93%
05:00 -10°C° 0.1 mm 4 mps 735 mmHg 91%
06:00 -12°C° 0.1 mm 4 mps 735 mmHg 89%
07:00 -12°C° 0 mm 4 mps 736 mmHg 89%
08:00 -12°C° 0 mm 4 mps 737 mmHg 89%
09:00 -12°C° 0 mm 3 mps 737 mmHg 88%
10:00 -10°C° 0 mm 3 mps 738 mmHg 88%
11:00 -9°C° 0 mm 3 mps 738 mmHg 87%
12:00 -8°C° 0 mm 3 mps 739 mmHg 87%
13:00 -7°C° 0 mm 3 mps 739 mmHg 85%
14:00 -7°C° 0 mm 3 mps 739 mmHg 84%
15:00 -7°C° 0 mm 3 mps 740 mmHg 82%
16:00 -8°C° 0 mm 3 mps 740 mmHg 85%
17:00 -9°C° 0 mm 2 mps 740 mmHg 88%
18:00 -10°C° 0 mm 2 mps 741 mmHg 91%
19:00 -12°C° 0 mm 2 mps 742 mmHg 92%
20:00 -13°C° 0 mm 2 mps 742 mmHg 93%
21:00 -14°C° 0 mm 2 mps 743 mmHg 95%
22:00 -15°C° 0 mm 2 mps 744 mmHg 95%
23:00 -16°C° 0 mm 2 mps 744 mmHg 96%

Day after tomorrow, 9 March, Tuesday

Time Temperature Precipitation Wind Pressure Humidity
00:00 -17°C° 0 mm 2 mps 745 mmHg 97%
01:00 -18°C° 0 mm 2 mps 745 mmHg 97%
02:00 -18°C° 0 mm 2 mps 746 mmHg 97%
03:00 -19°C° 0 mm 2 mps 747 mmHg 97%
04:00 -20°C° 0 mm 2 mps 747 mmHg 98%
05:00 -21°C° 0 mm 2 mps 747 mmHg 98%
06:00 -21°C° 0 mm 2 mps 748 mmHg 98%
07:00 -20°C° 0 mm 2 mps 748 mmHg 97%
08:00 -17°C° 0 mm 1 mps 749 mmHg 96%
09:00 -16°C° 0 mm 1 mps 750 mmHg 95%
10:00 -17°C° 0 mm 2 mps 750 mmHg 93%
11:00 -15°C° 0 mm 2 mps 750 mmHg 90%
12:00 -14°C° 0 mm 2 mps 750 mmHg 88%
13:00 -14°C° 0 mm 2 mps 751 mmHg 88%
14:00 -13°C° 0 mm 2 mps 751 mmHg 88%
15:00 -13°C° 0 mm 2 mps 751 mmHg 88%
16:00 -14°C° 0 mm 2 mps 751 mmHg 90%
17:00 -15°C° 0 mm 2 mps 751 mmHg 93%
18:00 -16°C° 0 mm 2 mps 752 mmHg 95%
19:00 -17°C° 0 mm 2 mps 752 mmHg 95%
20:00 -18°C° 0 mm 2 mps 753 mmHg 95%
21:00 -19°C° 0 mm 2 mps 753 mmHg 96%
22:00 -20°C° 0 mm 2 mps 753 mmHg 96%
23:00 -21°C° 0 mm 2 mps 754 mmHg 96%

10 March, Wednesday

Time Temperature Precipitation Wind Pressure Humidity
00:00 -23°C° 0 mm 2 mps 754 mmHg 97%
01:00 -25°C° 0 mm 3 mps 754 mmHg 97%
02:00 -26°C° 0 mm 3 mps 754 mmHg 97%
03:00 -26°C° 0 mm 3 mps 755 mmHg 97%
04:00 -29°C° 0 mm 3 mps 755 mmHg 96%
05:00 -30°C° 0 mm 3 mps 755 mmHg 96%
06:00 -31°C° 0 mm 3 mps 756 mmHg 96%
07:00 -31°C° 0 mm 3 mps 756 mmHg 95%
08:00 -30°C° 0 mm 3 mps 757 mmHg 94%
09:00 -30°C° 0 mm 3 mps 757 mmHg 94%
10:00 -27°C° 0 mm 3 mps 757 mmHg 92%
11:00 -25°C° 0 mm 3 mps 758 mmHg 91%
12:00 -24°C° 0 mm 3 mps 758 mmHg 89%
13:00 -23°C° 0 mm 3 mps 758 mmHg 87%
14:00 -22°C° 0 mm 3 mps 758 mmHg 86%
15:00 -22°C° 0 mm 4 mps 759 mmHg 84%
16:00 -22°C° 0 mm 3 mps 759 mmHg 87%
17:00 -23°C° 0 mm 3 mps 759 mmHg 90%
18:00 -23°C° 0 mm 2 mps 759 mmHg 93%
19:00 -24°C° 0 mm 2 mps 759 mmHg 94%
20:00 -25°C° 0 mm 2 mps 760 mmHg 95%
21:00 -26°C° 0 mm 2 mps 760 mmHg 96%
22:00 -26°C° 0 mm 2 mps 760 mmHg 97%
23:00 -27°C° 0 mm 2 mps 760 mmHg 97%

11 March, Thursday

Time Temperature Precipitation Wind Pressure Humidity
00:00 -27°C° 0 mm 2 mps 760 mmHg 98%
01:00 -27°C° 0 mm 2 mps 760 mmHg 98%
02:00 -27°C° 0 mm 2 mps 760 mmHg 98%
03:00 -28°C° 0 mm 2 mps 760 mmHg 98%
04:00 -27°C° 0 mm 2 mps 760 mmHg 98%
05:00 -29°C° 0 mm 3 mps 760 mmHg 97%
06:00 -27°C° 0 mm 3 mps 760 mmHg 97%
07:00 -25°C° 0 mm 3 mps 760 mmHg 96%
08:00 -23°C° 0 mm 3 mps 761 mmHg 95%
09:00 -21°C° 0 mm 3 mps 761 mmHg 94%
10:00 -18°C° 0 mm 3 mps 761 mmHg 93%
11:00 -16°C° 0 mm 3 mps 761 mmHg 92%
12:00 -14°C° 0 mm 3 mps 761 mmHg 91%
13:00 -13°C° 0 mm 3 mps 761 mmHg 90%
14:00 -12°C° 0 mm 3 mps 761 mmHg 88%
15:00 -10°C° 0 mm 4 mps 761 mmHg 87%
16:00 -10°C° 0 mm 3 mps 762 mmHg 88%
17:00 -12°C° 0 mm 3 mps 762 mmHg 90%
18:00 -12°C° 0 mm 2 mps 762 mmHg 91%
19:00 -13°C° 0 mm 2 mps 762 mmHg 93%
20:00 -14°C° 0 mm 2 mps 763 mmHg 94%
21:00 -15°C° 0 mm 2 mps 763 mmHg 95%
22:00 -16°C° 0 mm 2 mps 763 mmHg 95%
23:00 -17°C° 0 mm 2 mps 764 mmHg 96%

12 March, Friday

Time Temperature Precipitation Wind Pressure Humidity
00:00 -18°C° 0 mm 2 mps 764 mmHg 96%
01:00 -18°C° 0 mm 2 mps 764 mmHg 95%
02:00 -17°C° 0 mm 1 mps 764 mmHg 95%
03:00 -18°C° 0 mm 1 mps 765 mmHg 94%
04:00 -18°C° 0 mm 1 mps 765 mmHg 94%
05:00 -19°C° 0 mm 1 mps 765 mmHg 93%
06:00 -19°C° 0 mm 1 mps 765 mmHg 93%
07:00 -20°C° 0 mm 2 mps 765 mmHg 92%
08:00 -18°C° 0 mm 2 mps 766 mmHg 91%
09:00 -16°C° 0 mm 2 mps 766 mmHg 90%
10:00 -14°C° 0 mm 2 mps 766 mmHg 89%
11:00 -13°C° 0 mm 2 mps 765 mmHg 88%
12:00 -10°C° 0 mm 2 mps 765 mmHg 87%
13:00 -10°C° 0 mm 3 mps 765 mmHg 86%
14:00 -10°C° 0 mm 3 mps 764 mmHg 85%
15:00 -10°C° 0 mm 4 mps 764 mmHg 83%
16:00 -12°C° 0 mm 3 mps 764 mmHg 86%
17:00 -13°C° 0 mm 3 mps 763 mmHg 88%
18:00 -15°C° 0 mm 3 mps 763 mmHg 90%
19:00 -15°C° 0 mm 3 mps 763 mmHg 91%
20:00 -16°C° 0 mm 3 mps 762 mmHg 91%
21:00 -17°C° 0 mm 3 mps 762 mmHg 91%
22:00 -17°C° 0 mm 3 mps 762 mmHg 90%
23:00 -18°C° 0 mm 4 mps 762 mmHg 89%
Show more